This demonstration page uses our WeatherBlox Daily Observations layout. Learn more.

Left ArrowRight Arrow

Hourly Observations for March 26, 2016

Temp ( °F °C ) Dew Point ( °F °C ) Humidity (%) Winds ( mph kmh ) Pressure ( in mb ) Visibility ( mi km ) Precip ( " mm )
12:53 am 00:53 Clear 35 1.7 30 -1.1 82 82 ENE 3 6 30.20 1023 10 16 N/A
1:53 am 01:53 Clear 33 0.6 29 -1.7 85 85 NE 5 7 30.19 1023 10 16 N/A
2:53 am 02:53 Clear 33 0.6 29 -1.7 85 85 E 5 7 30.19 1022 10 16 N/A
3:53 am 03:53 Clear 33 0.6 30 -1.1 89 89 N N/A 30.19 1022 10 16 N/A
4:53 am 04:53 Clear 30 -1.1 27 -2.8 88 88 NNE 3 6 30.19 1022 10 16 N/A
5:53 am 05:53 Clear 31 -0.6 30 -1.1 96 96 N N/A 30.20 1023 8 13 N/A
6:53 am 06:53 Clear 31 -0.6 29 -1.7 92 92 N N/A 30.21 1023 8 13 N/A
7:53 am 07:53 Sunny 31 -0.6 28 -2.2 89 89 N N/A 30.22 1024 7 11 N/A
8:53 am 08:53 Sunny 37 2.8 32 undefined 82 82 E 3 6 30.25 1024 9 14 N/A
9:53 am 09:53 Sunny 42 5.6 34 1.1 73 73 ESE 7 11 30.24 1024 10 16 N/A
10:53 am 10:53 Sunny 46 7.8 35 1.7 66 66 E 3 6 30.24 1024 10 16 N/A
11:53 am 11:53 Sunny 50 10 37 2.8 61 61 ESE 5 7 30.21 1023 10 16 N/A
12:53 pm 12:53 Sunny 53 11.7 38 3.3 57 57 ENE 8 13 30.19 1023 10 16 N/A
1:53 pm 13:53 Sunny 56 13.3 38 3.3 51 51 ESE 8 13 30.19 1022 10 16 N/A
2:53 pm 14:53 Sunny 58 14.4 37 2.8 46 46 SE 3 6 30.17 1022 10 16 N/A
3:53 pm 15:53 Sunny 61 16.1 37 2.8 41 41 N N/A 30.15 1021 10 16 N/A
4:53 pm 16:53 Sunny 62 16.7 34 1.1 35 35 VRB 3 6 30.13 1020 10 16 N/A
5:53 pm 17:53 Sunny 63 17.2 39 3.9 41 41 VRB 7 11 30.13 1020 10 16 N/A
6:53 pm 18:53 Sunny 62 16.7 37 2.8 40 40 E 7 11 30.14 1021 10 16 N/A
7:53 pm 19:53 Sunny 57 13.9 37 2.8 47 47 E 6 9 30.14 1021 10 16 N/A
8:53 pm 20:53 Clear 51 10.6 39 3.9 64 64 ENE 5 7 30.13 1020 10 16 N/A
9:53 pm 21:53 Clear 49 9.4 42 5.6 77 77 N N/A 30.12 1020 10 16 N/A
10:53 pm 22:53 Clear 44 6.7 37 2.8 76 76 ENE 3 6 30.12 1020 10 16 N/A
11:53 pm 23:53 Clear 42 5.6 36 2.2 79 79 N N/A 30.13 1020 10 16 N/A

Powered by AerisWeather